Amelia, Virginia, United States
Lat: 37.37N, Lon: 77.92W
Wx Zone: VAZ068
Local Info
Past Weather Observations for Saturday, July 19, 2014

NOTE: This archive is for the closest National Weather Service station to Amelia. Information may differ from the station used for current weather conditions.

Click here for Long-term Archive

Time Weather Temperature Dewpoint Humidity Pressure Winds Precip Visibility
23:55
Clear
70°F / 21°C 64°F / 18°C 83% 30.12 in
(1020 mb)
Calm - 10SM
23:35
Clear
72°F / 22°C 64°F / 18°C 78% 30.12 in
(1020 mb)
Calm - 10SM
23:15
Clear
72°F / 22°C 66°F / 19°C 83% 30.12 in
(1020 mb)
Calm - 10SM
22:55
Partly Cloudy
72°F / 22°C 64°F / 18°C 78% 30.12 in
(1020 mb)
Calm - 10SM
22:35
Partly Cloudy
73°F / 23°C 66°F / 19°C 78% 30.12 in
(1020 mb)
Calm - 10SM
22:15
Partly Cloudy
72°F / 22°C 66°F / 19°C 83% 30.12 in
(1020 mb)
Calm - 10SM
21:55
Partly Cloudy
72°F / 22°C 64°F / 18°C 78% 30.12 in
(1020 mb)
Calm - 10SM
21:35
Clear
73°F / 23°C 66°F / 19°C 78% 30.12 in
(1020 mb)
Calm - 10SM
21:15
Clear
73°F / 23°C 66°F / 19°C 78% 30.12 in
(1020 mb)
Calm - 10SM
20:55
Clear
75°F / 24°C 68°F / 20°C 78% 30.12 in
(1020 mb)
Calm - 10SM
20:35
Clear
73°F / 23°C 70°F / 21°C 89% 30.12 in
(1020 mb)
NE 3.5 mph
(NE 6 kph)
- 10SM
20:15
Clear
73°F / 23°C 64°F / 18°C 74% 30.12 in
(1020 mb)
Calm - 10SM
19:55
Clear
73°F / 23°C 64°F / 18°C 74% 30.12 in
(1020 mb)
Calm - 10SM
19:35
Partly Cloudy
77°F / 25°C 66°F / 19°C 69% 30.12 in
(1020 mb)
Calm - 10SM
19:15
Partly Cloudy
79°F / 26°C 66°F / 19°C 65% 30.12 in
(1020 mb)
NE 3.5 mph
(NE 6 kph)
- 10SM
18:55
Clear
79°F / 26°C 66°F / 19°C 65% 30.12 in
(1020 mb)
NE 4.6 mph
(NE 7 kph)
- 10SM
18:35
Clear
81°F / 27°C 66°F / 19°C 62% 30.12 in
(1020 mb)
NE 3.5 mph
(NE 6 kph)
- 10SM
18:15
Clear
81°F / 27°C 64°F / 18°C 58% 30.12 in
(1020 mb)
NE 5.8 mph
(NE 9 kph)
- 10SM
17:55
Clear
82°F / 28°C 64°F / 18°C 55% 30.12 in
(1020 mb)
NNE 6.9 mph
(NNE 11 kph)
- 10SM
17:35
Clear
82°F / 28°C 64°F / 18°C 55% 30.12 in
(1020 mb)
NE 6.9 mph
(NE 11 kph)
- 10SM
17:15
Partly Cloudy
84°F / 29°C 64°F / 18°C 51% 30.12 in
(1020 mb)
ENE 3.5 mph
(ENE 6 kph)
- 10SM
16:50
Partly Cloudy
84°F / 29°C 63°F / 17°C 48% 30.12 in
(1020 mb)
NE 5.8 mph
(NE 9 kph)
- 10SM
16:30
Partly Cloudy
86°F / 30°C 63°F / 17°C 46% 30.12 in
(1020 mb)
NE 4.6 mph
(NE 7 kph)
- 10SM
16:15
Clear
84°F / 29°C 63°F / 17°C 48% 30.12 in
(1020 mb)
NE 6.9 mph
(NE 11 kph)
- 10SM
15:55
Clear
84°F / 29°C 63°F / 17°C 48% 30.12 in
(1020 mb)
NE 5.8 mph
(NE 9 kph)
- 10SM
15:35
Clear
84°F / 29°C 63°F / 17°C 48% 30.12 in
(1020 mb)
NE 5.8 mph
(NE 9 kph)
- 10SM
15:15
Clear
82°F / 28°C 63°F / 17°C 51% 30.12 in
(1020 mb)
ENE 5.8 mph
(ENE 9 kph)
- 10SM
14:55
Clear
82°F / 28°C 63°F / 17°C 51% 30.12 in
(1020 mb)
ENE 6.9 mph
(ENE 11 kph)
- 10SM
14:35
Clear
82°F / 28°C 63°F / 17°C 51% 30.12 in
(1020 mb)
NE 9.2 mph
(NE 15 kph)
- 10SM
14:15
Clear
82°F / 28°C 61°F / 16°C 48% 30.12 in
(1020 mb)
ENE 5.8 mph
(ENE 9 kph)
- 10SM
13:55
Partly Cloudy
82°F / 28°C 61°F / 16°C 48% 30.12 in
(1020 mb)
E 8.1 mph
(E 13 kph)
- 10SM
13:35
Clear
84°F / 29°C 61°F / 16°C 45% 30.15 in
(1021 mb)
NE 9.2 mph
(NE 15 kph)
- 10SM
13:15
Clear
82°F / 28°C 61°F / 16°C 48% 30.15 in
(1021 mb)
ENE 9.2 mph
(ENE 15 kph)
- 10SM
12:55
Clear
84°F / 29°C 61°F / 16°C 45% 30.15 in
(1021 mb)
ENE 6.9 mph
(ENE 11 kph)
- 10SM
12:35
Clear
84°F / 29°C 57°F / 14°C 40% 30.15 in
(1021 mb)
NE 8.1 mph
(NE 13 kph)
- 10SM
12:15
Clear
82°F / 28°C 61°F / 16°C 48% 30.15 in
(1021 mb)
E 9.2 mph
(E 15 kph)
- 10SM
11:55
Clear
82°F / 28°C 63°F / 17°C 51% 30.15 in
(1021 mb)
NE 10.4 mph
(NE 17 kph)
- 10SM
11:35
Clear
81°F / 27°C 61°F / 16°C 51% 30.15 in
(1021 mb)
NE 8.1 mph
(NE 13 kph)
- 10SM
11:15
Clear
81°F / 27°C 63°F / 17°C 54% 30.15 in
(1021 mb)
NE 9.2 mph
(NE 15 kph)
- 10SM
10:55
Clear
81°F / 27°C 63°F / 17°C 54% 30.18 in
(1022 mb)
NE 5.8 mph
(NE 9 kph)
- 10SM
10:35
Clear
81°F / 27°C 63°F / 17°C 54% 30.18 in
(1022 mb)
NE 5.8 mph
(NE 9 kph)
- 10SM
10:15
Clear
79°F / 26°C 63°F / 17°C 58% 30.18 in
(1022 mb)
NNE 5.8 mph
(NNE 9 kph)
- 10SM
09:55
Clear
79°F / 26°C 63°F / 17°C 58% 30.18 in
(1022 mb)
NNE 5.8 mph
(NNE 9 kph)
- 10SM
09:35
Clear
79°F / 26°C 63°F / 17°C 58% 30.18 in
(1022 mb)
N 5.8 mph
(N 9 kph)
- 10SM
09:15
Clear
79°F / 26°C 63°F / 17°C 58% 30.18 in
(1022 mb)
NNE 4.6 mph
(NNE 7 kph)
- 10SM
08:55
Clear
77°F / 25°C 63°F / 17°C 61% 30.18 in
(1022 mb)
Calm - 10SM
08:35
Clear
77°F / 25°C 64°F / 18°C 65% 30.18 in
(1022 mb)
Calm - 10SM
08:15
Clear
75°F / 24°C 64°F / 18°C 69% 30.18 in
(1022 mb)
Calm - 10SM
07:55
Clear
75°F / 24°C 64°F / 18°C 69% 30.18 in
(1022 mb)
N 3.5 mph
(N 6 kph)
- 10SM
07:35
Clear
73°F / 23°C 64°F / 18°C 74% 30.18 in
(1022 mb)
N 3.5 mph
(N 6 kph)
- 10SM
07:15
Clear
73°F / 23°C 66°F / 19°C 78% 30.18 in
(1022 mb)
Calm - 10SM
06:55
Clear
72°F / 22°C 66°F / 19°C 83% 30.18 in
(1022 mb)
Calm - 10SM
06:35
Clear
70°F / 21°C 66°F / 19°C 88% 30.18 in
(1022 mb)
Calm - 10SM
06:15
Clear
68°F / 20°C 64°F / 18°C 88% 30.18 in
(1022 mb)
Calm - 10SM
05:55
Clear
66°F / 19°C 63°F / 17°C 88% 30.18 in
(1022 mb)
Calm - 10SM
05:35
Clear
66°F / 19°C 61°F / 16°C 83% 30.18 in
(1022 mb)
Calm - 10SM
05:15
Clear
66°F / 19°C 61°F / 16°C 83% 30.18 in
(1022 mb)
Calm - 10SM
04:55
Clear
64°F / 18°C 61°F / 16°C 88% 30.18 in
(1022 mb)
Calm - 10SM
04:35
Clear
64°F / 18°C 59°F / 15°C 83% 30.18 in
(1022 mb)
Calm - 10SM
04:15
Clear
64°F / 18°C 57°F / 14°C 78% 30.18 in
(1022 mb)
Calm - 10SM
03:55
Clear
64°F / 18°C 59°F / 15°C 83% 30.18 in
(1022 mb)
Calm - 10SM
03:35
Clear
64°F / 18°C 57°F / 14°C 78% 30.18 in
(1022 mb)
Calm - 10SM
02:55
Clear
66°F / 19°C 59°F / 15°C 78% 30.18 in
(1022 mb)
Calm - 10SM
02:35
Clear
66°F / 19°C 59°F / 15°C 78% 30.18 in
(1022 mb)
Calm - 10SM
02:15
Clear
66°F / 19°C 61°F / 16°C 83% 30.18 in
(1022 mb)
Calm - 10SM
01:55
Clear
66°F / 19°C 57°F / 14°C 73% 30.18 in
(1022 mb)
Calm - 10SM
01:35
Clear
66°F / 19°C 57°F / 14°C 73% 30.18 in
(1022 mb)
Calm - 10SM
01:15
Clear
66°F / 19°C 61°F / 16°C 83% 30.18 in
(1022 mb)
Calm - 10SM
00:55
Clear
66°F / 19°C 57°F / 14°C 73% 30.18 in
(1022 mb)
Calm - 10SM
00:35
Clear
66°F / 19°C 57°F / 14°C 73% 30.21 in
(1023 mb)
Calm - 10SM
00:15
Clear
68°F / 20°C 61°F / 16°C 78% 30.21 in
(1023 mb)
Calm - 10SM
Time Weather Temperature Dewpoint Humidity Pressure Winds Precip Visibility


Weather for websites

WeatherForYou.com, LLC is not responsible for any damages or problems caused by this service. Current weather conditions are obtained from the closest station including government and personal stations which may have varying degrees of accuracy. Weather forecasts are derived from the NOAA NDFD. Like all things, this site belongs to Jesus Christ... He just trusts me to maintain it. If you have any questions or comments email webmaster@weatherforyou.com

Copyright © 2014, WeatherForYou.com LLC. All rights reserved.